Regional Weather Roundup
Issued by NWS

Home | Current Version | Previous Version | Graphics & Text | Print | Product List | Glossary On
Versions: 1 2 3 4 5 6 7 8 9 10 11 12 13 14 15 16 17 18 19 20 21 22 23 24 25 26 27 28 29 30 31 32 33 34 35 36 37 38 39 40 41 42 43 44 45 46 47 48 49 50
000
ASUS45 KCYS 191010
RWRWY

WYOMING REGIONAL WEATHER ROUNDUP
NATIONAL WEATHER SERVICE CHEYENNE WY
400 AM MDT SUN APR 19 2015

NOTE:  "FAIR" INDICATES FEW OR NO CLOUDS BELOW 12,000 FEET
WITH NO SIGNIFICANT WEATHER AND/OR OBSTRUCTIONS TO VISIBILITY.

WYZ001-191100-
YELLOWSTONE NATIONAL PARK

CITY           SKY/WX    TMP DP  RH WIND       PRES   REMARKS
LK YELLOWSTONE   N/A     23  17  78 CALM      30.21S
W YELLOWSTONE  NOT AVBL

$$
WYZ002>013-054>058-071-098>099-191100-
NORTHERN WYOMING

CITY           SKY/WX    TMP DP  RH WIND       PRES   REMARKS
JACKSON        FAIR      34  21  60 NE7       30.17S WCI  28
CODY           FAIR      30  25  80 CALM      30.23F
GREYBULL       FAIR      35  25  66 NW12      30.22S WCI  27
WORLAND        FAIR      37  25  61 N10       30.21R WCI  30
SHERIDAN       FAIR      35  26  69 NW12      30.20S WCI  27
BUFFALO        CLOUDY    36  25  64 N17       30.17R WCI  26
GILLETTE       MOCLDY    34  27  75 NW16      30.13S WCI  24
HULETT         FAIR      36  23  60 NW13G18   30.12R WCI  27
NEWCASTLE      FAIR      32  28  86 NW12      30.08S WCI  23

$$
WYZ014>020-022>026-101>103-191100-
CENTRAL WYOMING

CITY           SKY/WX    TMP DP  RH WIND       PRES   REMARKS
BIG PINEY      CLOUDY    35  26  69 SW12      30.17S WCI  27
PINEDALE       CLOUDY    32  28  86 E5        30.18S WCI  27
DUBOIS         CLOUDY    30  23  74 CALM      30.18S
LANDER         CLOUDY    36  29  75 CALM      30.19F
RIVERTON       CLOUDY    37  23  56 N14       30.20S WCI  28
CASPER         CLOUDY    32  25  75 VRB6      30.17S WCI  26
DOUGLAS        MOCLDY    32  29  88 NW10      30.16R WCI  24

$$
WYZ021-027>030-104>119-191100-
SOUTHERN WYOMING

CITY           SKY/WX    TMP DP  RH WIND       PRES   REMARKS
EVANSTON       FAIR      36  32  85 E15       30.13S WCI  27
KEMMERER       CLOUDY    34  32  93 E5        30.17S WCI  30
FORT BRIDGER   CLOUDY    36  36 100 SE13      30.18S WCI  27
ROCK SPRINGS   CLOUDY    33  29  85 E10       30.18S WCI  25
DIXON          CLOUDY    35  29  78 N13       30.18R WCI  26
RAWLINS        CLOUDY    32  26  78 NE12      30.18R WCI  23
SARATOGA       CLOUDY    32  28  86 NW9       30.17R WCI  24
LARAMIE        FLURRIES  29  27  92 N15       30.11S WCI  18
CHEYENNE       MOCLDY    33  27  78 N28G40    30.07R WCI  20
TORRINGTON     FAIR      39  30  70 NW21G29   30.09R WCI  29
PINE BLUFFS    FAIR      36  32  87 N23G31    30.06R WCI  24

$$



USA.gov is the U.S. government's official web portal to all federal, state and local government web resources and services.